Change the Weather History Date:

Tuesday, July 30, 2013

  Actual Average (KLOZ) Record (KLOZ)
Temperature  
Mean Temperature 65 °F 76 °F  
Max Temperature 77 °F 86 °F 101 °F (1999)
Min Temperature 53 °F 66 °F 54 °F (1974)
Degree Days  
Heating Degree Days 0 0  
Month to date heating degree days 0  
Since 1 June heating degree days 9  
Since 1 July heating degree days 0  
Cooling Degree Days 0 11  
Month to date cooling degree days 330  
Growing Degree Days 15 (Base 50)    
Moisture  
Dew Point 59 °F    
Average Humidity 82    
Maximum Humidity 100    
Minimum Humidity 47    
Precipitation  
Precipitation 0.00 in 0.12 in 1.57 in (1976)
Month to date precipitation 3.92  
Sea Level Pressure  
Sea Level Pressure 30.25 in    
Wind  
Wind Speed 0 mph (South)    
Max Wind Speed 4 mph    
Max Gust Speed -    
Visibility 10 miles    
Events Rain    
T = Trace of Precipitation, MM = Missing Value Source: NWS Daily Summary

Daily Weather History Graph

Daily Weather History Graph

Search for Another Location

Airport or City:

Trip Planner

Search our weather history database for the weather conditions in past years. The results will help you decide how hot, cold, wet, or windy it might be!

Date:

Astronomy

Jul. 30, 2013 Rise Set
Actual Time 6:37 AM EDT 8:40 PM EDT
Civil Twilight 6:08 AM EDT 9:09 PM EDT
Nautical Twilight 5:33 AM EDT 9:44 PM EDT
Astronomical Twilight 4:55 AM EDT 10:21 PM EDT
Moon 12:53 AM EDT (7/30) 3:00 PM EDT (7/30)
Length of Visible Light 15h 00m
Length of Day
14h 03m
Last Quarter, 41% of the Moon is Illuminated
Jul 30
Last Quarter
Aug 6
New
Aug 14
First Quarter
Aug 20
Full
Aug 28
Last Quarter

Hourly Weather History & Observations

Time (EDT) Temp. Dew Point Humidity Pressure Visibility Wind Dir Wind Speed Gust Speed Precip Events Conditions
12:15 AM 59.0 °F 57.2 °F 94% 30.27 in 10.0 mi Calm Calm - N/A   Unknown
12:35 AM 57.2 °F 57.2 °F 100% 30.27 in 10.0 mi Calm Calm - N/A   Unknown
12:55 AM 57.2 °F 57.2 °F 100% 30.26 in 10.0 mi Calm Calm - N/A   Unknown
1:15 AM 57.2 °F 57.2 °F 100% 30.26 in 10.0 mi Calm Calm - N/A   Unknown
1:35 AM 57.2 °F 57.2 °F 100% 30.26 in 10.0 mi Calm Calm - N/A   Unknown
1:55 AM 57.2 °F 55.4 °F 94% 30.25 in 10.0 mi Calm Calm - N/A   Unknown
2:15 AM 55.4 °F 55.4 °F 100% 30.25 in 10.0 mi Calm Calm - N/A   Unknown
2:35 AM 55.4 °F 55.4 °F 100% 30.25 in 10.0 mi Calm Calm - N/A   Unknown
2:55 AM 55.4 °F 55.4 °F 100% 30.25 in 10.0 mi Calm Calm - N/A   Unknown
3:15 AM 55.4 °F 55.4 °F 100% 30.25 in 10.0 mi Calm Calm - N/A   Unknown
3:35 AM 55.4 °F 55.4 °F 100% 30.26 in 10.0 mi Calm Calm - N/A   Unknown
3:55 AM 55.4 °F 55.4 °F 100% 30.26 in 10.0 mi Calm Calm - N/A   Unknown
4:15 AM 53.6 °F 53.6 °F 100% 30.26 in 10.0 mi Calm Calm - N/A   Unknown
4:35 AM 53.6 °F 53.6 °F 100% 30.26 in 10.0 mi Calm Calm - N/A   Unknown
4:55 AM 53.6 °F 53.6 °F 100% 30.26 in 10.0 mi Calm Calm - N/A   Unknown
5:15 AM 53.6 °F 53.6 °F 100% 30.26 in 10.0 mi Calm Calm - N/A   Unknown
5:35 AM 53.6 °F 53.6 °F 100% 30.26 in 10.0 mi Calm Calm - N/A   Unknown
5:55 AM 53.6 °F 53.6 °F 100% 30.27 in 10.0 mi Calm Calm - N/A   Unknown
6:15 AM 53.6 °F 53.6 °F 100% 30.27 in 10.0 mi Calm Calm - N/A   Unknown
6:35 AM 53.6 °F 53.6 °F 100% 30.27 in 10.0 mi Calm Calm - N/A   Unknown
6:55 AM 53.6 °F 53.6 °F 100% 30.28 in 10.0 mi Calm Calm - N/A   Unknown
7:15 AM 55.4 °F 53.6 °F 94% 30.28 in 10.0 mi Calm Calm - N/A   Clear
7:35 AM 55.4 °F 55.4 °F 100% 30.28 in 10.0 mi Calm Calm - N/A   Clear
7:55 AM 57.2 °F 55.4 °F 94% 30.29 in 10.0 mi Calm Calm - N/A   Clear
8:15 AM 57.2 °F 55.4 °F 94% 30.30 in 10.0 mi Calm Calm - N/A   Clear
8:35 AM 59.0 °F 55.4 °F 88% 30.30 in 10.0 mi Calm Calm - N/A   Clear
8:55 AM 60.8 °F 57.2 °F 88% 30.30 in 10.0 mi Calm Calm - N/A   Clear
9:15 AM 64.4 °F 57.2 °F 77% 30.30 in 10.0 mi Calm Calm - N/A   Clear
9:35 AM 64.4 °F 57.2 °F 77% 30.30 in 10.0 mi Calm Calm - N/A   Clear
9:55 AM 66.2 °F 59.0 °F 78% 30.30 in 10.0 mi Calm Calm - N/A   Clear
10:15 AM 68.0 °F 59.0 °F 73% 30.29 in 10.0 mi Calm Calm - N/A   Clear
10:35 AM 69.8 °F 59.0 °F 68% 30.29 in 10.0 mi Calm Calm - N/A   Clear
10:55 AM 68.0 °F 59.0 °F 73% 30.29 in 10.0 mi Calm Calm - N/A   Clear
11:15 AM 71.6 °F 57.2 °F 60% 30.28 in 10.0 mi Calm Calm - N/A   Clear
11:35 AM 71.6 °F 59.0 °F 64% 30.28 in 10.0 mi Calm Calm - N/A   Clear
11:55 AM 73.4 °F 59.0 °F 61% 30.27 in 10.0 mi Calm Calm - N/A   Clear
12:15 PM 73.4 °F 59.0 °F 61% 30.27 in 10.0 mi Calm Calm - N/A   Clear
12:55 PM 77.0 °F 59.0 °F 54% 30.26 in 10.0 mi East 3.5 mph - N/A   Clear
1:15 PM 75.2 °F 57.2 °F 53% 30.26 in 10.0 mi Calm Calm - N/A   Clear
1:35 PM 77.0 °F 57.2 °F 50% 30.26 in 10.0 mi Calm Calm - N/A   Clear
2:15 PM 77.0 °F 57.2 °F 50% 30.25 in 10.0 mi Calm Calm - N/A   Clear
2:35 PM 77.0 °F 55.4 °F 47% 30.25 in 10.0 mi Calm Calm - N/A   Clear
2:55 PM 77.0 °F 55.4 °F 47% 30.25 in 10.0 mi Calm Calm - N/A   Clear
3:15 PM 77.0 °F 57.2 °F 50% 30.25 in 10.0 mi West 3.5 mph - N/A   Clear
3:35 PM 77.0 °F 57.2 °F 50% 30.24 in 10.0 mi Calm Calm - N/A   Clear
3:55 PM 77.0 °F 57.2 °F 50% 30.24 in 10.0 mi Calm Calm - N/A   Clear
4:15 PM 75.2 °F 59.0 °F 57% 30.24 in 10.0 mi Calm Calm - N/A   Clear
4:35 PM 75.2 °F 59.0 °F 57% 30.23 in 10.0 mi Calm Calm - N/A   Clear
4:55 PM 75.2 °F 59.0 °F 57% 30.23 in 10.0 mi Calm Calm - N/A   Clear
5:15 PM 75.2 °F 59.0 °F 57% 30.22 in 10.0 mi Calm Calm - N/A   Clear
5:35 PM 75.2 °F 60.8 °F 61% 30.22 in 10.0 mi Calm Calm - N/A   Clear
5:55 PM 75.2 °F 62.6 °F 65% 30.22 in 10.0 mi Calm Calm - N/A   Clear
6:15 PM 73.4 °F 62.6 °F 69% 30.22 in 10.0 mi Calm Calm - N/A   Clear
6:35 PM 73.4 °F 64.4 °F 73% 30.22 in 10.0 mi Calm Calm - N/A   Clear
6:55 PM 73.4 °F 64.4 °F 73% 30.22 in 10.0 mi Calm Calm - N/A   Clear
7:15 PM 73.4 °F 64.4 °F 73% 30.22 in 10.0 mi Calm Calm - N/A   Clear
7:35 PM 73.4 °F 64.4 °F 73% 30.22 in 10.0 mi Calm Calm - N/A   Clear
7:55 PM 71.6 °F 68.0 °F 88% 30.22 in 10.0 mi Calm Calm - N/A   Partly Cloudy
8:15 PM 71.6 °F 66.2 °F 83% 30.21 in 10.0 mi Calm Calm - N/A   Clear
8:35 PM 69.8 °F 66.2 °F 88% 30.22 in 10.0 mi Calm Calm - N/A   Clear
8:55 PM 68.0 °F 66.2 °F 94% 30.21 in 10.0 mi Calm Calm - N/A   Unknown
9:15 PM 68.0 °F 66.2 °F 94% 30.22 in 10.0 mi Calm Calm - N/A   Unknown
9:35 PM 68.0 °F 66.2 °F 94% 30.21 in 10.0 mi Calm Calm - N/A   Unknown
9:55 PM 68.0 °F 66.2 °F 94% 30.22 in 10.0 mi Calm Calm - N/A   Unknown
10:15 PM 68.0 °F 66.2 °F 94% 30.23 in 10.0 mi Calm Calm - N/A   Unknown
10:35 PM 68.0 °F 66.2 °F 94% 30.24 in 10.0 mi Calm Calm - N/A   Unknown
10:55 PM 66.2 °F 66.2 °F 100% 30.24 in 10.0 mi Calm Calm - N/A   Unknown
11:15 PM 66.2 °F 66.2 °F 100% 30.24 in 10.0 mi Calm Calm - N/A   Unknown
11:35 PM 66.2 °F 66.2 °F 100% 30.25 in 10.0 mi Calm Calm - N/A Rain Light Rain
11:55 PM 66.2 °F 66.2 °F 100% 30.25 in 10.0 mi Calm Calm - N/A Rain Light Rain